ZHONGXING-11

Last updated on Tue Sep 16 2025 00:02:47 GMT+0000 (Coordinated Universal Time)

1 39157U 13020A 25258.78998318 -.00000308 00000+0 00000+0 0 9996 2 39157 0.0407 276.6690 0001640 280.1165 180.5113 1.00272701 45141
UTC large
Height (km)
Speed (km/s)
/
Latitude / Longitude
Inclination (degrees)
Orbital Period (minutes)
Azimuth
Elevation
Range (km)
Doppler Factor

Next 0 passes for location: London (51.5072 / 0.1276)

Sorry there are no passes over London.